CZ-8 R/B (47301 NORAD) Tracking and Keplerian Element Data

This shows tracking and keplerian element data for the satellite.

Feedback or suggestion? Click here.




ElementValue
Catalog47301
NameCZ-8 R/B
Epoch Orbit452
Epoch Day20.67130592
Epoch Year2021
RAAN121.3905
Inclination97.4391
Eccentricity0.0104996
Argument of Perigee55.3566
Mean Anonmoly305.7522
Mean Motion15.36569588
Decay Rate2.706E-05
L11 47301U 20102F 21020.67130592 .00002706 00000-0 65267-4 0 9993
L22 47301 97.4391 121.3905 0104996 55.3566 305.7522 15.36569588 4521



Live tracking and technical data element details for CZ-8 R/B (NORAD 47301). CZ-8 R/B can be tracked NOW for your location showing map with azimuth and elevation plus other details from your city location.







IsCatalogInMostPopularTable: catalog: 47301, numindb: 107
Update: records affected: 1



GetName: 47301 CZ-8 R/B

Hit Count: updated at: Sun, 28 May 2023 19:07:27 GMT